Regional Weather Roundup
Issued by NWS Cleveland, OH

Home | Current Version | Previous Version | Graphics & Text | Print | Product List | Glossary On
Versions: 1 2 3 4 5 6 7 8 9 10 11 12 13 14 15 16 17 18 19 20 21 22 23 24 25 26 27 28 29 30 31 32 33 34 35 36 37 38 39 40 41 42 43 44 45 46 47 48 49 50
000
ASUS41 KCLE 232010
RWRCLE
OHIO REGIONAL WEATHER ROUNDUP
NATIONAL WEATHER SERVICE CLEVELAND, OH
400 PM EDT TUE AUG 23 2016

NOTE: "FAIR" INDICATES FEW OR NO CLOUDS BELOW 12,000 FEET WITH NO
SIGNIFICANT WEATHER AND/OR OBSTRUCTIONS TO VISIBILITY.

OHZ001>008-015>018-024>027-034-035-043-044-232100-
   NORTHWEST OHIO

CITY           SKY/WX    TMP DP  RH WIND       PRES   REMARKS
DEFIANCE       MOSUNNY   81  57  43 SW9       30.23F
FINDLAY        MOSUNNY   80  57  45 SW7       30.24F
TOLEDO EXPRESS MOSUNNY   80  58  46 S8        30.22F
TOLEDO EXEC    MOSUNNY   81  58  45 S10       30.24F
LIMA           MOSUNNY   79  61  53 SW7       30.25F
$$

OHZ009>014-019>023-028>033-038-089-232100-
   NORTHEAST OHIO

CITY           SKY/WX    TMP DP  RH WIND       PRES   REMARKS
CLE-HOPKINS    PTSUNNY   81  57  43 N8        30.27F
CLE-LAKEFRONT  MOSUNNY   79  58  48 NW8       30.25F
CUY CO. ARPT   PTSUNNY   81  61  50 N10       30.27S
LORAIN-ELYRIA  MOSUNNY   79  57  46 NW7       30.26F
ASHTABULA      SUNNY     79  57  46 S9        30.27F
AKRON-CANTON   MOSUNNY   82  53  36 NW5       30.27F
WOOSTER        SUNNY     79  59  50 VRB3      30.28F
MANSFIELD      MOSUNNY   80  57  45 SW8       30.27F
YOUNGSTOWN     PTSUNNY   80  56  43 SW5       30.27F
$$

OHZ042-051>053-060>062-070>072-077>081-232100-
  SOUTHWEST OHIO

CITY           SKY/WX    TMP DP  RH WIND       PRES   REMARKS
CINC-COVINGTON PTSUNNY   82  60  47 E7        30.23F
CINC-LUNKEN    MOSUNNY   81  61  50 SE7       30.23F
HAMILTON       SUNNY     82  58  43 SW3       30.24F
DAYTON         MOSUNNY   79  57  46 CALM      30.26F
WRIGHT-PAT AFB MOSUNNY   81  56  41 S7        30.24F
DAYTON GENERAL MOSUNNY   80  58  46 VRB6      30.24F
WILMINGTON     PTSUNNY   79  61  53 S8        30.26F
$$

OHZ036-037-039>041-045>050-054>059-063>069-073>076-082>088-232100-
  CENTRAL AND SOUTHEAST OHIO

CITY           SKY/WX    TMP DP  RH WIND       PRES   REMARKS
COLUMBUS       MOSUNNY   79  55  43 S7        30.25F
OSU AIRPORT    MOSUNNY   80  57  45 VRB5      30.25F
BOLTON FIELD   SUNNY     79  61  53 S6        30.26F
RICKENBACK AFB MOSUNNY   80  58  46 CALM      30.25F
NEWARK         MOSUNNY   79  58  48 VRB5      30.26F
MARION         SUNNY     79  57  46 S8        30.26F
LANCASTER      SUNNY     80  57  45 S7        30.26F
ZANESVILLE     SUNNY     80  56  43 CALM      30.27F
NEW PHILLY     SUNNY     83  55  38 S7        30.27F
$$



USA.gov is the U.S. government's official web portal to all federal, state and local government web resources and services.